TimeEDT,TemperatureF,Dew PointF,Humidity,Sea Level PressureIn,VisibilityMPH,Wind Direction,Wind SpeedMPH,Gust SpeedMPH,PrecipitationIn,Events,Conditions,WindDirDegrees,DateUTC
12:54 AM,60.1,55.0,83,30.20,10.0,SSE,4.6,-,N/A,,Scattered Clouds,150,2011-10-11 04:54:00
1:54 AM,59.0,54.0,83,30.20,10.0,SE,5.8,-,N/A,,Scattered Clouds,140,2011-10-11 05:54:00
2:54 AM,57.0,53.1,87,30.19,10.0,SSE,3.5,-,N/A,,Scattered Clouds,150,2011-10-11 06:54:00
3:54 AM,57.0,52.0,83,30.18,9.0,Calm,Calm,-,N/A,,Scattered Clouds,0,2011-10-11 07:54:00
4:54 AM,55.9,52.0,87,30.18,10.0,SE,3.5,-,N/A,,Partly Cloudy,130,2011-10-11 08:54:00
5:54 AM,55.4,51.8,88,30.19,10.0,SE,3.5,-,N/A,,Partly Cloudy,130,2011-10-11 09:54:00
6:54 AM,55.0,50.0,83,30.19,10.0,ESE,3.5,-,N/A,,Mostly Cloudy,120,2011-10-11 10:54:00
7:54 AM,55.9,51.1,84,30.20,9.0,ESE,5.8,-,N/A,,Mostly Cloudy,110,2011-10-11 11:54:00
8:54 AM,59.0,53.1,81,30.20,10.0,ESE,5.8,-,N/A,,Mostly Cloudy,120,2011-10-11 12:54:00
9:54 AM,64.0,54.0,70,30.19,10.0,ESE,5.8,-,N/A,,Overcast,120,2011-10-11 13:54:00
10:54 AM,69.1,55.9,63,30.18,10.0,ESE,5.8,-,N/A,,Mostly Cloudy,120,2011-10-11 14:54:00
11:54 AM,73.0,54.0,51,30.17,10.0,SE,9.2,-,N/A,,Mostly Cloudy,130,2011-10-11 15:54:00
12:54 PM,75.0,52.0,44,30.15,10.0,SSE,4.6,-,N/A,,Mostly Cloudy,150,2011-10-11 16:54:00
1:54 PM,75.9,50.0,40,30.13,10.0,Variable,3.5,-,N/A,,Mostly Cloudy,0,2011-10-11 17:54:00
2:54 PM,77.0,48.9,37,30.10,10.0,ENE,4.6,-,N/A,,Mostly Cloudy,70,2011-10-11 18:54:00
3:54 PM,78.8,50.0,36,30.10,10.0,ENE,5.8,-,N/A,,Overcast,60,2011-10-11 19:54:00
4:54 PM,75.9,48.9,38,30.09,10.0,East,4.6,-,N/A,,Mostly Cloudy,100,2011-10-11 20:54:00
5:54 PM,73.9,51.1,45,30.09,10.0,East,4.6,-,N/A,,Mostly Cloudy,80,2011-10-11 21:54:00
6:54 PM,71.1,54.0,55,30.08,10.0,East,6.9,-,N/A,,Mostly Cloudy,80,2011-10-11 22:54:00
7:54 PM,68.0,54.0,61,30.09,10.0,ENE,4.6,-,N/A,,Overcast,60,2011-10-11 23:54:00
8:54 PM,68.0,55.9,65,30.08,10.0,ESE,9.2,-,N/A,,Overcast,110,2011-10-12 00:54:00
9:54 PM,66.9,55.9,68,30.08,10.0,ESE,9.2,-,N/A,,Overcast,110,2011-10-12 01:54:00
10:54 PM,64.9,55.9,73,30.09,10.0,ESE,5.8,-,N/A,,Overcast,110,2011-10-12 02:54:00
11:54 PM,64.9,55.9,73,30.08,10.0,Calm,Calm,-,N/A,,Overcast,0,2011-10-12 03:54:00